Retour au catalogue

STARLINK-11527

ActifCommunicationsVLEO
NORAD 62523·PAYLOAD·🇺🇸 United States

Lancé Jan 8, 2025 depuis Cape Canaveral Space Force Station

Loading…

Prochains Passages (prochaines 24 heures)

TLE

FraisSource: CelesTrak SupGP

Époque: Sep 14, 2026, 22:27 UTC

1 62523C 25004N   26257.93590278  .00034482  00000+0  26830-3 0  2573
2 62523  43.0007   9.7564 0001866 274.5960 131.0294 15.70777733    17

Suivez STARLINK-11527 en temps réel avec AllMySat

Download on the App Store